Flag Weather past 2 weeks in Kornwestheim, Baden-Württemberg, Germany

Now
36 °F

Mostly cloudy.


Feels Like: 31 °F
Forecast: 34 / 43 °F
Wind: 6 mph from East

Location: Stuttgart-Echterdingen

Current Time: Nov 29, 2014 at 9:53:32 AM

Latest Report: Nov 29, 2014 at 9:20 AM


Visibility: N/A

Pressure: 29.95 "Hg

Humidity: 93%

Dew point: 34 °F

Location of KornwestheimLocation

Historic Weather in Kornwestheim — Graph

°F

Kornwestheim temperature yesterday

Maximum temperature yesterday: 43 °F (at 11:50 AM)
Minimum temperature yesterday: 34 °F (at 4:20 AM)
Average temperature yesterday: 37 °F

Past Weeks' High & Low Weather Summary

 TemperatureHumidityPressure
High57 °F (Nov 22, 2:20 PM)100% (Nov 15, 2:20 AM)30.30 "Hg (Nov 15, 2:20 AM)
Low34 °F (Nov 20, 2:50 AM)63% (Nov 16, 3:20 PM)29.53 "Hg (Nov 15, 10:20 PM)
Average43 °F90%29.95 "Hg
* Reported Nov 14 8:20 AM — Nov 29 8:50 AM, Kornwestheim, Weather by CustomWeather, © 2014

Note: Actual official high and low records may vary slightly from our data, if they occured in-between our weather recording intervals... More about our weather records

Advertising

Kornwestheim weather history for previous 24 hours

 ConditionsComfort  
Time TempWeatherWind HumidityBarometerVisibility
8:50 AM
Nov 29
36 °FMostly cloudy.5 mph93%29.95 "HgN/A
8:20 AM36 °FMostly cloudy.3 mph93%29.95 "HgN/A
7:50 AM36 °FLow clouds.3 mph93%29.95 "HgN/A
7:20 AM36 °FLow clouds.5 mph93%29.92 "HgN/A
6:50 AM36 °FLow clouds.6 mph93%29.92 "HgN/A
6:20 AM36 °FPassing clouds.5 mph93%29.92 "HgN/A
5:50 AM36 °FPassing clouds.3 mph93%29.92 "HgN/A
5:20 AM36 °FPassing clouds.5 mph93%29.92 "HgN/A
4:50 AM36 °FPassing clouds.5 mph93%29.92 "HgN/A
4:20 AM36 °FLow clouds.6 mph93%29.89 "HgN/A
3:50 AM36 °FLow clouds.7 mph93%29.92 "HgN/A
3:20 AM36 °FLow clouds.5 mph93%29.92 "HgN/A
2:50 AM36 °FLow clouds.6 mph93%29.92 "HgN/A
2:20 AM36 °FPassing clouds.5 mph93%29.92 "HgN/A
1:50 AM36 °FPassing clouds.6 mph93%29.89 "Hg6 mi
1:20 AM36 °FPassing clouds.6 mph93%29.89 "Hg5 mi
12:50 AM36 °FPassing clouds.7 mph93%29.89 "Hg4 mi
12:20 AM36 °FPassing clouds.6 mph93%29.89 "Hg4 mi
11:50 PM
Nov 28
36 °FPassing clouds.7 mph93%29.89 "Hg4 mi
11:20 PM34 °FFog.5 mph100%29.89 "Hg3 mi
10:50 PM34 °FPassing clouds.5 mph93%29.89 "Hg4 mi
10:20 PM34 °FPassing clouds.6 mph93%29.89 "Hg4 mi
9:50 PM34 °FPassing clouds.7 mph93%29.89 "Hg4 mi
9:20 PM36 °FPassing clouds.8 mph93%29.89 "Hg4 mi
8:50 PM36 °FPassing clouds.8 mph93%29.86 "Hg4 mi
8:20 PM36 °FPassing clouds.10 mph93%29.86 "Hg5 mi
7:50 PM36 °FPassing clouds.12 mph93%29.86 "Hg5 mi
7:20 PM36 °FPassing clouds.10 mph93%29.86 "Hg5 mi
6:50 PM36 °FPassing clouds.10 mph93%29.86 "Hg5 mi
6:20 PM36 °FPassing clouds.10 mph93%29.83 "Hg6 mi
5:50 PM36 °FPassing clouds.10 mph93%29.83 "Hg6 mi
5:20 PM36 °FPassing clouds.8 mph93%29.83 "HgN/A
4:50 PM36 °FPassing clouds.9 mph93%29.83 "HgN/A
4:20 PM37 °FScattered clouds.7 mph87%29.80 "HgN/A
3:50 PM37 °FScattered clouds.12 mph87%29.80 "HgN/A
3:20 PM39 °FScattered clouds.10 mph81%29.80 "HgN/A
2:50 PM39 °FScattered clouds.12 mph87%29.80 "HgN/A
2:20 PM41 °FScattered clouds.10 mph81%29.80 "HgN/A
1:50 PM43 °FSunny.9 mph81%29.80 "Hg10 mi
1:20 PM43 °FSunny.9 mph81%29.80 "Hg10 mi
12:50 PM43 °FSunny.8 mph76%29.80 "Hg10 mi
12:20 PM43 °FSunny.7 mph81%29.80 "Hg10 mi
11:50 AM43 °FScattered clouds.7 mph81%29.83 "HgN/A
11:20 AM41 °FScattered clouds.7 mph87%29.83 "HgN/A
10:50 AM39 °FScattered clouds.9 mph87%29.83 "HgN/A
10:20 AM39 °FPassing clouds.9 mph87%29.83 "Hg5 mi
9:50 AM37 °FPassing clouds.9 mph93%29.83 "Hg4 mi
9:20 AM37 °FPassing clouds.6 mph100%29.83 "Hg4 mi
Weather by CustomWeather, © 2014

See weather overviewHow to use our weather pages